This is the latest recevied weather packets stored in our database for station/object 9M8ZAL-13. If no packets are shown the sender has not sent any weather packets the latest 10 day(s).
| Time | Temp. | Humidity | Pressure | Rain* | Wind** | Luminosity | Snow |
|---|---|---|---|---|---|---|---|
| 1776952126 | 27.78° C | - | 1008.5 hPa | - | - | 1000 W/m² | - |
| 1776951526 | 27.78° C | - | 1008.4 hPa | - | - | 1000 W/m² | - |
| 1776950926 | 27.78° C | - | 1008 hPa | - | - | 1000 W/m² | - |
| 1776950326 | 28.33° C | - | 1007.7 hPa | - | - | 1000 W/m² | - |
| 1776949726 | 28.33° C | - | 1007.5 hPa | - | - | 1000 W/m² | - |
| 1776949126 | 28.33° C | - | 1007.3 hPa | - | - | 1000 W/m² | - |
| 1776948526 | 28.33° C | - | 1007.2 hPa | - | - | 1000 W/m² | - |
| 1776947926 | 28.33° C | - | 1007.1 hPa | - | - | 1000 W/m² | - |
| 1776947326 | 28.33° C | - | 1007.2 hPa | - | - | 1000 W/m² | - |
| 1776946726 | 28.33° C | - | 1007 hPa | - | - | 1000 W/m² | - |
| 1776946126 | 28.89° C | - | 1006.7 hPa | - | - | 1000 W/m² | - |
| 1776945525 | 28.89° C | - | 1006.6 hPa | - | - | 1000 W/m² | - |
| 1776944926 | 28.33° C | - | 1006.4 hPa | - | - | 1000 W/m² | - |
| 1776944326 | 28.33° C | - | 1006.3 hPa | - | - | 1000 W/m² | - |
| 1776943725 | 28.89° C | - | 1006.1 hPa | - | - | 1000 W/m² | - |
| 1776942525 | 28.33° C | - | 1005.8 hPa | - | - | 1000 W/m² | - |
| 1776941925 | 28.33° C | - | 1006 hPa | - | - | 1000 W/m² | - |
| 1776941325 | 28.89° C | - | 1006 hPa | - | - | 1000 W/m² | - |
| 1776940725 | 29.44° C | - | 1005.9 hPa | - | - | 1000 W/m² | - |
| 1776940125 | 28.89° C | - | 1005.7 hPa | - | - | 1000 W/m² | - |
| 1776939525 | 29.44° C | - | 1005.6 hPa | - | - | 1000 W/m² | - |
| 1776938925 | 29.44° C | - | 1005.5 hPa | - | - | 1000 W/m² | - |
| 1776938326 | 29.44° C | - | 1006 hPa | - | - | 1000 W/m² | - |
| 1776937725 | 28.89° C | - | 1006 hPa | - | - | 1000 W/m² | - |
| 1776937125 | 28.89° C | - | 1006.3 hPa | - | - | 1000 W/m² | - |
* Rain since midnight (hover to see other rain measurements)
** Current wind speed in m/s (hover to see current wind gust speed)